FREGAT/IRIS
1 35867U 09049C   09266.44536257  .00002263  00000-0  10000-3 0   189
2 35867 097.3744 316.4141 0008501 269.7673 090.2561 15.22708053   870
OBJECT D
1 35868U 09049D   09265.58012318 +.00000177 +00000-0 +10000-3 0 00071
2 35868 098.8008 315.7465 0005104 054.7207 305.4442 14.22083919000697
OBJECT E
1 35869U 09049E   09265.72121088 +.00000176 +00000-0 +10000-3 0 00083
2 35869 098.7999 315.8831 0005431 068.1023 292.0701 14.21977589000718
SUMBANDILA
1 35870U 09049F   09266.33745269  .00002270  00000-0  10000-3 0   106
2 35870 097.3735 316.3012 0010079 275.8265 214.8132 15.22796479   853
OBJECT G
1 35871U 09049G   09265.58122617  .00000174  00000-0  10000-3 0    21
2 35871 098.8000 315.7440 0005563 052.1646 308.0103 14.21536584    80


No Common Name Found
1 35879U 93036ATS 09265.05959825  .00011035  00000-0  44234-3 0    12
2 35879 074.0582 284.8249 0247279 109.5827 253.1279 15.01257899 18881
No Common Name Found
1 35880U 93036ATT 09265.79731989 +.00002231 +00000-0 +16045-3 0 00022
2 35880 074.0582 292.3330 0232016 118.8001 243.6593 14.85730422026362
No Common Name Found
1 35881U 93036ATU 09264.23691720  .00000028  00000-0  29407-4 0    17
2 35881 074.1961 351.1281 0091226 032.2740 328.4383 14.06730591 28191
No Common Name Found
1 35882U 93036ATV 09265.04106334  .00008393  00000-0  37750-3 0    12
2 35882 074.0553 286.4649 0247428 124.5239 237.9580 14.97862855 18642
No Common Name Found
1 35883U 93036ATW 09265.49426819  .00000048  00000-0  21768-4 0    17
2 35883 074.0291 321.9055 0094465 100.1275 261.0497 14.42469479 14971
No Common Name Found
1 35884U 93036ATX 09264.58235828  .00000458  00000-0  28286-3 0    11
2 35884 074.0082 349.9801 0162524 033.4763 327.6540 14.01752559 19287
No Common Name Found
1 35885U 93036ATY 09265.82858052 +.00000040 +00000-0 +24844-4 0 00025
2 35885 074.0287 329.1392 0026043 038.3503 321.9492 14.30938938015751
No Common Name Found
1 35886U 93036ATZ 09265.44687837  .00001092  00000-0  22500-3 0    18
2 35886 074.0155 311.2511 0107346 137.4686 223.4947 14.58199881 19616
No Common Name Found
1 35887U 93036AUA 09265.83377630  .00000829  00000-0  45580-3 0    20
2 35887 073.9802 342.4823 0128628 026.8671 334.0797 14.09124881 12155
No Common Name Found
1 35888U 93036AUB 09265.80087013 +.00000103 +00000-0 +36280-4 0 00024
2 35888 074.0385 319.5894 0060205 127.6318 233.0311 14.45418920004916
No Common Name Found
1 35889U 93036AUC 09265.75024556 +.00000892 +00000-0 +16943-3 0 00020
2 35889 074.0653 310.1657 0132609 119.4353 242.0105 14.60220626004535
No Common Name Found
1 35890U 93036AUD 09265.53579411  .00000615  00000-0  27216-3 0    10
2 35890 073.9529 333.5522 0092986 312.1802 047.1468 14.23058363  4230
No Common Name Found
1 35891U 93036AUE 09265.79869794 +.00000323 +00000-0 +52800-4 0 00020
2 35891 074.0076 303.9655 0157969 128.9332 232.6036 14.67354804005142
No Common Name Found
1 35892U 93036AUF 09265.73983776 +.00018176 +00000-0 +80076-3 0 00022
2 35892 074.1004 284.5919 0225389 134.5108 227.4719 15.01788621004919
No Common Name Found
1 35893U 93036AUG 09265.88394201 +.00000547 +00000-0 +22383-3 0 00028
2 35893 073.6698 325.4107 0093127 301.9534 057.2607 14.27556151004309
No Common Name Found
1 35894U 93036AUH 09265.74806030  .00002941  00000-0  30755-3 0    24
2 35894 074.0038 296.8757 0185133 133.6915 227.9630 14.78284206  4540
No Common Name Found
1 35895U 93036AUJ 09265.93101793 -.00000072  00000-0 -35116-4 0    22
2 35895 074.0549 359.2324 0242153 021.7303 339.3904 13.84365782  3980
No Common Name Found
1 35896U 93036AUK 09265.85372839 +.00001242 +00000-0 +33688-3 0 00024
2 35896 073.9706 316.8606 0049112 156.4932 203.8368 14.48004489021737
No Common Name Found
1 35897U 93036AUL 09265.78763640 +.00000476 +00000-0 +59392-4 0 00020
2 35897 073.9733 298.2942 0182101 147.6692 213.5801 14.74619425010655
No Common Name Found
1 35898U 93036AUM 09265.45560234  .00000301  00000-0  58565-4 0    16
2 35898 074.0084 308.6511 0141374 123.8185 237.6540 14.61544262 10081
No Common Name Found
1 35899U 93036AUN 09265.78318834 +.00002103 +00000-0 +43179-3 0 00027
2 35899 074.0256 310.8519 0095396 148.9572 211.7262 14.58459732003951
